Weather in Veduchi

Russia / Chechen Republic     42°41′11″N   45°34′12″E
temp.,
°C
wind,
m/s
gust,
m/s
humid.,
%
clouds,
%
prec.,
mm/h
press.,
hPa
HPBL,
m
12 may, wed
wed1200:00+4ssw23714 0.0 101464
03:00+4ssw33710 0.0 101449
06:00+7ssw13670 0.0 101490
09:00+13ene13470 0.0 1012950
12:00+16e15400 0.0 10121361
15:00+15e14442 0.0 10131341
18:00+11e12684 0.0 1015170
21:00+8ssw446225 0.0 101662
13 may, thu
thu1300:00+8ssw455776 0.0 101571
03:00+8ssw45550 0.0 101576
06:00+10ssw45533 0.0 101598
09:00+19ssw35290 0.0 10131814
12:00+22ssw24260 0.0 10132379
15:00+21sse13301 0.0 10142172
18:00+16se12600 0.0 101574
21:00+11ssw445646 0.0 101853
14 may, fri
fri1400:00+10ssw455157 0.0 101863
03:00+10ssw454826 0.0 101766
06:00+12ssw445012 0.0 101777
09:00+21ssw232625 0.0 10141594
12:00+23s23275 0.0 10142755
15:00+22s22309 0.0 10132554
18:00+18ssw23515 0.0 101491
21:00+11ssw44491 0.0 101766
15 may, sat
sat1500:00+10ssw55460 0.0 101782
03:00+10ssw44580 0.0 101773
06:00+12ssw33550 0.0 101769
09:00+21n21270 0.0 10141157
12:00+22nne42305 0.0 10142336
15:00+20nne323921 0.2 10141742
18:00+16w116499 0.6 101631
21:00+12ssw337098 0.6 101736
16 may, sun
sun1600:00+11ssw337022 0.0 101640
03:00+10ssw337136 0.0 101558
06:00+12ssw34622 0.0 101499
09:00+21wsw02331 0.0 10111401
12:00+24wnw03284 0.0 10082591
15:00+23ssw13282 0.0 10082360
18:00+17ssw34360 0.0 1009161
21:00+10ssw56350 0.0 1012103